Regional Weather Roundup
Issued by NWS Sioux Falls, SD

Home | Current Version | Previous Version | Text Only | Print | Product List | Glossary On
Versions: 1 2 3 4 5 6 7 8 9 10 11 12 13 14 15 16 17 18 19 20 21 22 23 24 25 26 27 28 29 30 31 32 33 34 35 36 37 38 39 40 41 42 43 44 45 46 47 48 49 50
000
ASUS43 KFSD 212210
RWRFSD

WEATHER ROUNDUP FOR SE SOUTH DAKOTA/SW MINNESOTA/NW IOWA
NATIONAL WEATHER SERVICE SIOUX FALLS SD
400 PM CST TUE FEB 21 2017

NOTE: "FAIR" INDICATES FEW OR NO CLOUDS BELOW 12,000 FEET WITH NO
SIGNIFICANT WEATHER AND OR OBSTRUCTIONS TO VISIBILITY.


SDZ038>040-050-052>070-212300-
SOUTHEAST SOUTH DAKOTA

CITY           SKY/WX    TMP DP  RH WIND       PRES   REMARKS
BROOKINGS      SUNNY     63  40  42 SW13      29.70F
CHAMBERLAIN    SUNNY     72  38  28 CALM      29.68F
HURON          SUNNY     68  36  30 VRB6      29.68S
MADISON        FAIR      63  37  39 SW13G20   29.71S
MITCHELL       SUNNY     70  36  28 W10       29.70S
SIOUX FALLS    MOSUNNY   68  40  35 W5        29.71F
WINNER         FAIR      77  33  20 W16G28    29.69F
YANKTON        SUNNY     75  36  23 W16       29.69F
$$

MNZ071-072-080-081-089-090-097-098-212300-
SOUTHWEST MINNESOTA

CITY           SKY/WX    TMP DP  RH WIND       PRES   REMARKS
FAIRMONT       SUNNY     62  45  53 SW14      29.74F
JACKSON        SUNNY     63  41  45 SW15G22   29.75S
LUVERNE        SUNNY     64  41  42 W9        29.73F
MARSHALL       SUNNY     61  45  55 SW16      29.70F
MONTEVIDEO     SUNNY     61  45  55 W8        29.71R
PIPESTONE      SUNNY     63  37  39 SW13      29.72F
REDWOOD FALLS  MOSUNNY   64  45  49 SW12      29.70S
TRACY          SUNNY     62  46  55 SW17G24   29.70F
WINDOM         SUNNY     64  45  48 SW20G28   29.72S
WORTHINGTON    SUNNY     63  45  51 SW20      29.73F
$$

IAZ001>003-012>014-020>022-031-032-NEZ013-014-SDZ071-212300-
NORTHWEST IOWA

CITY           SKY/WX    TMP DP  RH WIND       PRES   REMARKS
CHEROKEE       SUNNY     68  39  34 SW20G25   29.76
DENISON        SUNNY     66  43  42 S20       29.79F
ESTHERVILLE    SUNNY     63  44  50 S18       29.74F
LE MARS        SUNNY     70  39  32 SW22G30   29.74F
ORANGE CITY    SUNNY     66  45  45 SW15      29.74F
SHELDON        SUNNY     66  46  48 S16       29.72S
SIOUX CITY     SUNNY     73  37  27 SW25G37   29.76F
SPENCER        SUNNY     65  46  50 S16       29.74F
STORM LAKE     SUNNY     64  43  45 S23G30    29.77F
$$

ABBREVIATIONS USED IN REMARKS
   TC - TEMPERATURE IN CELSIUS
  WCI - WIND CHILL INDEX
   HX - HEAT INDEX
  VSB - VISIBILITY




USA.gov is the U.S. government's official web portal to all federal, state and local government web resources and services.